contact:dominique.lefevre@mio.osupytheas.fr, maurice.libes@osupytheas.fr, didier.mallarino@osupytheas.fr
Project:EMSO http://www.emso-fr.org/EMSO-France
Depth: 2436.0 m
Title:EMSO Ligure Ouest : Data MII capteur CSTAR
DateTime,Latitude,Longitude,Instrument_Serial,Reference_Counts,Signal_Counts,Corrected_Signal_raw_counts,Calculated_Beam_c_inverse_meters,Internal_thermistor_counts
DateTime,Latitude,Longitude,Instrument_Serial,Reference_Counts,Signal_Counts,Corrected_Signal_raw_counts,Calculated_Beam_c_inverse_meters,Internal_thermistor_counts
2020-05-05T00:02:30,42.805,6.029,CST-1368DR,6370,8928,15175,0.115,551
2020-05-05T00:05:32,42.805,6.029,CST-1368DR,6370,8930,15178,0.114,551
2020-05-05T00:08:33,42.805,6.029,CST-1368DR,6370,8929,15176,0.114,551
2020-05-05T00:11:35,42.805,6.029,CST-1368DR,6370,8930,15178,0.114,551
2020-05-05T00:14:37,42.805,6.029,CST-1368DR,6370,8929,15177,0.114,551
2020-05-05T00:17:38,42.805,6.029,CST-1368DR,6370,8931,15179,0.114,551
2020-05-05T00:20:40,42.805,6.029,CST-1368DR,6370,8930,15178,0.114,551
2020-05-05T00:23:42,42.805,6.029,CST-1368DR,6370,8930,15178,0.114,551
2020-05-05T00:26:43,42.805,6.029,CST-1368DR,6371,8929,15174,0.115,551
2020-05-05T00:29:45,42.805,6.029,CST-1368DR,6370,8929,15176,0.114,551
2020-05-05T00:32:47,42.805,6.029,CST-1368DR,6370,8929,15177,0.114,551
2020-05-05T00:35:49,42.805,6.029,CST-1368DR,6370,8928,15175,0.115,551
2020-05-05T00:38:50,42.805,6.029,CST-1368DR,6371,8930,15176,0.114,551
2020-05-05T00:41:52,42.805,6.029,CST-1368DR,6370,8928,15175,0.115,551
2020-05-05T00:44:54,42.805,6.029,CST-1368DR,6370,8922,15164,0.117,551
2020-05-05T00:47:55,42.805,6.029,CST-1368DR,6370,8926,15171,0.116,551
2020-05-05T00:50:57,42.805,6.029,CST-1368DR,6370,8930,15178,0.114,551
2020-05-05T00:53:59,42.805,6.029,CST-1368DR,6370,8930,15178,0.114,551
2020-05-05T00:57:00,42.805,6.029,CST-1368DR,6370,8926,15171,0.116,551
2020-05-05T01:00:02,42.805,6.029,CST-1368DR,6370,8928,15174,0.115,551
2020-05-05T01:03:04,42.805,6.029,CST-1368DR,6370,8929,15175,0.115,551
2020-05-05T01:06:05,42.805,6.029,CST-1368DR,6370,8931,15179,0.114,551
2020-05-05T01:09:07,42.805,6.029,CST-1368DR,6370,8929,15177,0.114,551
2020-05-05T01:12:09,42.805,6.029,CST-1368DR,6370,8931,15180,0.113,551
2020-05-05T01:15:10,42.805,6.029,CST-1368DR,6370,8931,15179,0.114,551
2020-05-05T01:18:12,42.805,6.029,CST-1368DR,6370,8930,15178,0.114,551
2020-05-05T01:21:14,42.805,6.029,CST-1368DR,6370,8930,15178,0.114,551
2020-05-05T01:24:16,42.805,6.029,CST-1368DR,6370,8929,15177,0.114,551
2020-05-05T01:27:17,42.805,6.029,CST-1368DR,6370,8931,15179,0.114,551
2020-05-05T01:30:19,42.805,6.029,CST-1368DR,6370,8930,15178,0.114,551
2020-05-05T01:33:21,42.805,6.029,CST-1368DR,6370,8929,15177,0.114,551
2020-05-05T01:36:23,42.805,6.029,CST-1368DR,6370,8930,15178,0.114,551
2020-05-05T01:39:25,42.805,6.029,CST-1368DR,6370,8929,15177,0.114,551
2020-05-05T01:42:26,42.805,6.029,CST-1368DR,6370,8931,15179,0.114,551
2020-05-05T01:45:28,42.805,6.029,CST-1368DR,6370,8930,15178,0.114,551
2020-05-05T01:48:30,42.805,6.029,CST-1368DR,6370,8930,15178,0.114,550
2020-05-05T01:51:31,42.805,6.029,CST-1368DR,6370,8930,15178,0.114,551
2020-05-05T01:54:33,42.805,6.029,CST-1368DR,6370,8931,15179,0.114,551
2020-05-05T01:57:35,42.805,6.029,CST-1368DR,6370,8931,15179,0.114,551
2020-05-05T02:00:36,42.805,6.029,CST-1368DR,6370,8931,15180,0.113,551
2020-05-05T02:03:38,42.805,6.029,CST-1368DR,6370,8930,15178,0.114,551
2020-05-05T02:06:40,42.805,6.029,CST-1368DR,6370,8931,15180,0.113,551
2020-05-05T02:09:41,42.805,6.029,CST-1368DR,6370,8930,15178,0.114,551
2020-05-05T02:12:43,42.805,6.029,CST-1368DR,6370,8932,15181,0.113,551
2020-05-05T02:15:45,42.805,6.029,CST-1368DR,6370,8931,15179,0.114,551
2020-05-05T02:18:46,42.805,6.029,CST-1368DR,6370,8930,15178,0.114,551
2020-05-05T02:21:48,42.805,6.029,CST-1368DR,6370,8928,15175,0.115,551
2020-05-05T02:24:50,42.805,6.029,CST-1368DR,6370,8926,15171,0.116,551
2020-05-05T02:27:51,42.805,6.029,CST-1368DR,6370,8930,15178,0.114,551
2020-05-05T02:30:53,42.805,6.029,CST-1368DR,6370,8929,15177,0.114,551
2020-05-05T02:33:55,42.805,6.029,CST-1368DR,6370,8930,15178,0.114,551
2020-05-05T02:36:57,42.805,6.029,CST-1368DR,6370,8930,15178,0.114,551
2020-05-05T02:39:58,42.805,6.029,CST-1368DR,6370,8930,15178,0.114,551
2020-05-05T02:43:00,42.805,6.029,CST-1368DR,6370,8931,15179,0.114,551
2020-05-05T02:46:02,42.805,6.029,CST-1368DR,6370,8930,15178,0.114,551
2020-05-05T02:49:03,42.805,6.029,CST-1368DR,6370,8930,15178,0.114,551
2020-05-05T02:52:05,42.805,6.029,CST-1368DR,6370,8929,15176,0.114,551
2020-05-05T02:55:07,42.805,6.029,CST-1368DR,6370,8930,15178,0.114,551
2020-05-05T02:58:08,42.805,6.029,CST-1368DR,6370,8929,15176,0.114,551
2020-05-05T03:01:10,42.805,6.029,CST-1368DR,6370,8931,15180,0.113,551
2020-05-05T03:04:12,42.805,6.029,CST-1368DR,6370,8930,15178,0.114,551
2020-05-05T03:07:14,42.805,6.029,CST-1368DR,6370,8929,15176,0.114,551
2020-05-05T03:10:15,42.805,6.029,CST-1368DR,6370,8930,15178,0.114,551
2020-05-05T03:13:17,42.805,6.029,CST-1368DR,6370,8929,15176,0.114,551
2020-05-05T03:16:19,42.805,6.029,CST-1368DR,6370,8921,15162,0.118,551
2020-05-05T03:19:20,42.805,6.029,CST-1368DR,6370,8927,15172,0.115,550
2020-05-05T03:22:22,42.805,6.029,CST-1368DR,6370,8930,15178,0.114,551
2020-05-05T03:25:24,42.805,6.029,CST-1368DR,6370,8930,15178,0.114,551
2020-05-05T03:28:26,42.805,6.029,CST-1368DR,6370,8929,15176,0.114,551
2020-05-05T03:31:27,42.805,6.029,CST-1368DR,6370,8930,15178,0.114,551
2020-05-05T03:34:29,42.805,6.029,CST-1368DR,6370,8930,15178,0.114,551
2020-05-05T03:37:31,42.805,6.029,CST-1368DR,6370,8929,15176,0.114,550
2020-05-05T03:40:33,42.805,6.029,CST-1368DR,6370,8930,15178,0.114,551
2020-05-05T03:43:34,42.805,6.029,CST-1368DR,6370,8928,15175,0.115,551
2020-05-05T03:46:36,42.805,6.029,CST-1368DR,6370,8929,15176,0.114,551
2020-05-05T03:49:38,42.805,6.029,CST-1368DR,6370,8930,15178,0.114,551
2020-05-05T03:52:39,42.805,6.029,CST-1368DR,6370,8929,15176,0.114,551
2020-05-05T03:55:41,42.805,6.029,CST-1368DR,6370,8929,15175,0.115,551
2020-05-05T03:58:43,42.805,6.029,CST-1368DR,6370,8928,15174,0.115,551
2020-05-05T04:01:45,42.805,6.029,CST-1368DR,6370,8928,15174,0.115,551
2020-05-05T04:04:46,42.805,6.029,CST-1368DR,6370,8929,15177,0.114,551
2020-05-05T04:07:48,42.805,6.029,CST-1368DR,6370,8930,15178,0.114,551
2020-05-05T04:10:50,42.805,6.029,CST-1368DR,6370,8929,15176,0.114,551
2020-05-05T04:13:51,42.805,6.029,CST-1368DR,6370,8929,15175,0.115,551
2020-05-05T04:16:53,42.805,6.029,CST-1368DR,6370,8929,15176,0.114,551
2020-05-05T04:19:55,42.805,6.029,CST-1368DR,6370,8929,15177,0.114,551
2020-05-05T04:22:56,42.805,6.029,CST-1368DR,6370,8929,15176,0.114,551
2020-05-05T04:25:58,42.805,6.029,CST-1368DR,6370,8928,15175,0.115,551
2020-05-05T04:29:00,42.805,6.029,CST-1368DR,6370,8928,15175,0.115,551
2020-05-05T04:32:02,42.805,6.029,CST-1368DR,6370,8928,15174,0.115,551
2020-05-05T04:35:03,42.805,6.029,CST-1368DR,6370,8929,15176,0.114,551
2020-05-05T04:38:05,42.805,6.029,CST-1368DR,6370,8930,15178,0.114,551
2020-05-05T04:41:07,42.805,6.029,CST-1368DR,6370,8929,15175,0.115,551
2020-05-05T04:44:08,42.805,6.029,CST-1368DR,6370,8927,15173,0.115,551
2020-05-05T04:47:10,42.805,6.029,CST-1368DR,6370,8929,15176,0.114,551
2020-05-05T04:50:12,42.805,6.029,CST-1368DR,6370,8929,15177,0.114,551
2020-05-05T04:53:13,42.805,6.029,CST-1368DR,6370,8929,15176,0.114,551
2020-05-05T04:56:15,42.805,6.029,CST-1368DR,6370,8929,15175,0.115,551
2020-05-05T04:59:17,42.805,6.029,CST-1368DR,6370,8928,15175,0.115,551
2020-05-05T05:02:19,42.805,6.029,CST-1368DR,6370,8929,15175,0.115,551
2020-05-05T05:05:20,42.805,6.029,CST-1368DR,6370,8928,15175,0.115,551
2020-05-05T05:08:22,42.805,6.029,CST-1368DR,6370,8925,15170,0.116,551
2020-05-05T05:11:24,42.805,6.029,CST-1368DR,6370,8929,15175,0.115,551
2020-05-05T05:14:25,42.805,6.029,CST-1368DR,6370,8929,15176,0.114,551
2020-05-05T05:17:27,42.805,6.029,CST-1368DR,6369,8927,15175,0.115,551
2020-05-05T05:20:29,42.805,6.029,CST-1368DR,6369,8926,15173,0.115,551
2020-05-05T05:23:31,42.805,6.029,CST-1368DR,6369,8926,15173,0.115,551
2020-05-05T05:26:32,42.805,6.029,CST-1368DR,6369,8929,15179,0.114,551
2020-05-05T05:29:34,42.805,6.029,CST-1368DR,6369,8929,15178,0.114,551
2020-05-05T05:32:36,42.805,6.029,CST-1368DR,6369,8929,15179,0.114,551
2020-05-05T05:35:37,42.805,6.029,CST-1368DR,6369,8928,15177,0.114,551
2020-05-05T05:38:39,42.805,6.029,CST-1368DR,6369,8927,15176,0.114,551
2020-05-05T05:41:41,42.805,6.029,CST-1368DR,6369,8927,15175,0.115,551
2020-05-05T05:44:42,42.805,6.029,CST-1368DR,6369,8926,15173,0.115,551
2020-05-05T05:47:44,42.805,6.029,CST-1368DR,6369,8929,15178,0.114,551
2020-05-05T05:50:46,42.805,6.029,CST-1368DR,6369,8928,15176,0.114,551
2020-05-05T05:53:47,42.805,6.029,CST-1368DR,6369,8928,15177,0.114,551
2020-05-05T05:56:49,42.805,6.029,CST-1368DR,6369,8928,15176,0.114,551
2020-05-05T05:59:51,42.805,6.029,CST-1368DR,6369,8927,15176,0.114,551
2020-05-05T06:02:52,42.805,6.029,CST-1368DR,6369,8927,15175,0.115,550
2020-05-05T06:05:54,42.805,6.029,CST-1368DR,6369,8926,15173,0.115,551
2020-05-05T06:08:56,42.805,6.029,CST-1368DR,6369,8928,15176,0.114,551
2020-05-05T06:11:57,42.805,6.029,CST-1368DR,6369,8929,15178,0.114,551
2020-05-05T06:14:59,42.805,6.029,CST-1368DR,6369,8928,15177,0.114,551
2020-05-05T06:18:01,42.805,6.029,CST-1368DR,6369,8928,15176,0.114,551
2020-05-05T06:21:03,42.805,6.029,CST-1368DR,6369,8928,15176,0.114,551
2020-05-05T06:24:04,42.805,6.029,CST-1368DR,6369,8928,15177,0.114,551
2020-05-05T06:27:06,42.805,6.029,CST-1368DR,6369,8928,15177,0.114,551
2020-05-05T06:30:08,42.805,6.029,CST-1368DR,6369,8927,15175,0.115,551
2020-05-05T06:33:09,42.805,6.029,CST-1368DR,6369,8929,15178,0.114,551
2020-05-05T06:36:11,42.805,6.029,CST-1368DR,6369,8925,15171,0.116,551
2020-05-05T06:39:13,42.805,6.029,CST-1368DR,6369,8928,15177,0.114,551
2020-05-05T06:42:15,42.805,6.029,CST-1368DR,6369,8928,15177,0.114,551
2020-05-05T06:45:16,42.805,6.029,CST-1368DR,6369,8925,15171,0.116,551
2020-05-05T06:48:18,42.805,6.029,CST-1368DR,6369,8922,15166,0.117,551
2020-05-05T06:51:20,42.805,6.029,CST-1368DR,6369,8928,15177,0.114,551
2020-05-05T06:54:21,42.805,6.029,CST-1368DR,6369,8928,15177,0.114,550
2020-05-05T06:57:23,42.805,6.029,CST-1368DR,6369,8927,15175,0.115,551
2020-05-05T07:00:25,42.805,6.029,CST-1368DR,6368,8928,15178,0.114,551
2020-05-05T07:03:26,42.805,6.029,CST-1368DR,6368,8927,15177,0.114,551
2020-05-05T07:06:28,42.805,6.029,CST-1368DR,6368,8927,15177,0.114,551
2020-05-05T07:09:30,42.805,6.029,CST-1368DR,6368,8925,15173,0.115,550
2020-05-05T07:12:31,42.805,6.029,CST-1368DR,6368,8927,15178,0.114,551
2020-05-05T07:15:33,42.805,6.029,CST-1368DR,6368,8923,15171,0.116,550
2020-05-05T07:18:35,42.805,6.029,CST-1368DR,6368,8925,15174,0.115,550
2020-05-05T07:21:37,42.805,6.029,CST-1368DR,6368,8927,15177,0.114,551
2020-05-05T07:24:38,42.805,6.029,CST-1368DR,6368,8925,15174,0.115,550
2020-05-05T07:27:40,42.805,6.029,CST-1368DR,6369,8925,15172,0.115,551
2020-05-05T07:30:42,42.805,6.029,CST-1368DR,6369,8928,15176,0.114,551
2020-05-05T07:33:43,42.805,6.029,CST-1368DR,6368,8926,15175,0.115,551
2020-05-05T07:36:45,42.805,6.029,CST-1368DR,6369,8926,15173,0.115,551
2020-05-05T07:39:47,42.805,6.029,CST-1368DR,6369,8926,15173,0.115,551
2020-05-05T07:42:49,42.805,6.029,CST-1368DR,6369,8928,15177,0.114,550
2020-05-05T07:45:50,42.805,6.029,CST-1368DR,6369,8928,15177,0.114,551
2020-05-05T07:48:52,42.805,6.029,CST-1368DR,6369,8929,15178,0.114,551
2020-05-05T07:51:54,42.805,6.029,CST-1368DR,6369,8926,15173,0.115,551
2020-05-05T07:54:55,42.805,6.029,CST-1368DR,6369,8924,15170,0.116,551
2020-05-05T07:57:57,42.805,6.029,CST-1368DR,6369,8928,15176,0.114,551
2020-05-05T08:00:59,42.805,6.029,CST-1368DR,6369,8928,15176,0.114,551
2020-05-05T08:04:00,42.805,6.029,CST-1368DR,6369,8927,15176,0.114,551
2020-05-05T08:07:02,42.805,6.029,CST-1368DR,6369,8926,15173,0.115,550
2020-05-05T08:10:04,42.805,6.029,CST-1368DR,6369,8928,15176,0.114,551
2020-05-05T08:13:06,42.805,6.029,CST-1368DR,6369,8928,15177,0.114,551
2020-05-05T08:16:07,42.805,6.029,CST-1368DR,6369,8927,15176,0.114,551
2020-05-05T08:19:09,42.805,6.029,CST-1368DR,6369,8927,15175,0.115,551
2020-05-05T08:22:11,42.805,6.029,CST-1368DR,6369,8927,15175,0.115,551
2020-05-05T08:25:12,42.805,6.029,CST-1368DR,6369,8922,15166,0.117,551
2020-05-05T08:28:14,42.805,6.029,CST-1368DR,6369,8925,15172,0.115,550
2020-05-05T08:31:16,42.805,6.029,CST-1368DR,6369,8926,15173,0.115,551
2020-05-05T08:34:17,42.805,6.029,CST-1368DR,6369,8927,15175,0.115,551
2020-05-05T08:37:19,42.805,6.029,CST-1368DR,6369,8927,15175,0.115,551
2020-05-05T08:40:21,42.805,6.029,CST-1368DR,6369,8927,15176,0.114,550
2020-05-05T08:43:22,42.805,6.029,CST-1368DR,6369,8927,15175,0.115,551
2020-05-05T08:46:24,42.805,6.029,CST-1368DR,6369,8926,15173,0.115,551
2020-05-05T08:49:26,42.805,6.029,CST-1368DR,6369,8926,15173,0.115,551
2020-05-05T08:52:27,42.805,6.029,CST-1368DR,6369,8926,15173,0.115,551
2020-05-05T08:55:29,42.805,6.029,CST-1368DR,6369,8926,15173,0.115,551
2020-05-05T08:58:31,42.805,6.029,CST-1368DR,6369,8927,15175,0.115,551
2020-05-05T09:01:32,42.805,6.029,CST-1368DR,6369,8927,15176,0.114,551
2020-05-05T09:04:34,42.805,6.029,CST-1368DR,6369,8927,15175,0.115,551
2020-05-05T09:07:36,42.805,6.029,CST-1368DR,6369,8924,15169,0.116,551
2020-05-05T09:10:38,42.805,6.029,CST-1368DR,6369,8927,15174,0.115,551
2020-05-05T09:13:39,42.805,6.029,CST-1368DR,6369,8925,15172,0.115,551
2020-05-05T09:16:41,42.805,6.029,CST-1368DR,6369,8925,15172,0.115,551
2020-05-05T09:19:43,42.805,6.029,CST-1368DR,6369,8927,15175,0.115,551
2020-05-05T09:22:44,42.805,6.029,CST-1368DR,6369,8926,15173,0.115,551
2020-05-05T09:25:46,42.805,6.029,CST-1368DR,6369,8924,15170,0.116,551
2020-05-05T09:28:48,42.805,6.029,CST-1368DR,6369,8925,15171,0.116,551
2020-05-05T09:31:50,42.805,6.029,CST-1368DR,6369,8927,15176,0.114,551
2020-05-05T09:34:51,42.805,6.029,CST-1368DR,6369,8927,15175,0.115,551
2020-05-05T09:37:53,42.805,6.029,CST-1368DR,6369,8926,15173,0.115,550
2020-05-05T09:40:55,42.805,6.029,CST-1368DR,6369,8927,15176,0.114,551
2020-05-05T09:43:57,42.805,6.029,CST-1368DR,6369,8927,15174,0.115,551
2020-05-05T09:46:58,42.805,6.029,CST-1368DR,6369,8926,15173,0.115,551
2020-05-05T09:50:00,42.805,6.029,CST-1368DR,6369,8928,15176,0.114,551
2020-05-05T09:53:02,42.805,6.029,CST-1368DR,6369,8927,15175,0.115,551
2020-05-05T09:56:03,42.805,6.029,CST-1368DR,6369,8927,15175,0.115,550
2020-05-05T09:59:05,42.805,6.029,CST-1368DR,6369,8927,15174,0.115,551
2020-05-05T10:02:07,42.805,6.029,CST-1368DR,6369,8928,15177,0.114,551
2020-05-05T10:05:08,42.805,6.029,CST-1368DR,6369,8925,15172,0.115,551
2020-05-05T10:08:10,42.805,6.029,CST-1368DR,6369,8925,15172,0.115,551
2020-05-05T10:11:12,42.805,6.029,CST-1368DR,6369,8927,15175,0.115,551
2020-05-05T10:14:14,42.805,6.029,CST-1368DR,6369,8926,15173,0.115,550
2020-05-05T10:17:16,42.805,6.029,CST-1368DR,6368,8927,15177,0.114,550
2020-05-05T10:20:17,42.805,6.029,CST-1368DR,6368,8926,15175,0.115,551
2020-05-05T10:23:19,42.805,6.029,CST-1368DR,6368,8926,15175,0.115,551
2020-05-05T10:26:21,42.805,6.029,CST-1368DR,6368,8924,15173,0.115,551
2020-05-05T10:29:23,42.805,6.029,CST-1368DR,6368,8925,15174,0.115,551
2020-05-05T10:32:24,42.805,6.029,CST-1368DR,6368,8927,15177,0.114,551
2020-05-05T10:35:26,42.805,6.029,CST-1368DR,6369,8924,15170,0.116,551
2020-05-05T10:38:28,42.805,6.029,CST-1368DR,6369,8927,15175,0.115,551
2020-05-05T10:41:29,42.805,6.029,CST-1368DR,6368,8926,15176,0.114,551
2020-05-05T10:44:31,42.805,6.029,CST-1368DR,6368,8926,15175,0.115,551
2020-05-05T10:47:33,42.805,6.029,CST-1368DR,6368,8925,15174,0.115,551
2020-05-05T10:50:35,42.805,6.029,CST-1368DR,6368,8926,15176,0.114,551
2020-05-05T10:53:36,42.805,6.029,CST-1368DR,6368,8926,15175,0.115,551
2020-05-05T10:56:38,42.805,6.029,CST-1368DR,6368,8926,15176,0.114,551
2020-05-05T10:59:40,42.805,6.029,CST-1368DR,6368,8926,15176,0.114,551
2020-05-05T11:02:41,42.805,6.029,CST-1368DR,6368,8926,15175,0.115,551
2020-05-05T11:05:43,42.805,6.029,CST-1368DR,6368,8927,15177,0.114,551
2020-05-05T11:08:45,42.805,6.029,CST-1368DR,6368,8927,15177,0.114,551
2020-05-05T11:11:46,42.805,6.029,CST-1368DR,6368,8926,15175,0.115,551
2020-05-05T11:14:48,42.805,6.029,CST-1368DR,6368,8927,15177,0.114,551
2020-05-05T11:17:50,42.805,6.029,CST-1368DR,6368,8927,15177,0.114,551
2020-05-05T11:20:51,42.805,6.029,CST-1368DR,6368,8927,15177,0.114,551
2020-05-05T11:23:53,42.805,6.029,CST-1368DR,6368,8927,15177,0.114,551
2020-05-05T11:26:55,42.805,6.029,CST-1368DR,6368,8927,15177,0.114,551
2020-05-05T11:29:57,42.805,6.029,CST-1368DR,6368,8926,15176,0.114,551
2020-05-05T11:32:58,42.805,6.029,CST-1368DR,6368,8926,15175,0.115,551
2020-05-05T11:36:00,42.805,6.029,CST-1368DR,6368,8927,15177,0.114,551
2020-05-05T11:39:02,42.805,6.029,CST-1368DR,6368,8928,15179,0.114,551
2020-05-05T11:42:03,42.805,6.029,CST-1368DR,6368,8927,15178,0.114,551
2020-05-05T11:45:05,42.805,6.029,CST-1368DR,6368,8927,15177,0.114,551
2020-05-05T11:48:07,42.805,6.029,CST-1368DR,6368,8927,15177,0.114,551
2020-05-05T11:51:09,42.805,6.029,CST-1368DR,6368,8926,15175,0.115,551
2020-05-05T11:54:10,42.805,6.029,CST-1368DR,6368,8927,15177,0.114,551
2020-05-05T11:57:12,42.805,6.029,CST-1368DR,6368,8927,15177,0.114,551
2020-05-05T12:00:14,42.805,6.029,CST-1368DR,6368,8927,15177,0.114,551
2020-05-05T12:03:16,42.805,6.029,CST-1368DR,6368,8926,15176,0.114,551
2020-05-05T12:06:18,42.805,6.029,CST-1368DR,6368,8927,15177,0.114,551
2020-05-05T12:09:19,42.805,6.029,CST-1368DR,6368,8926,15176,0.114,551
2020-05-05T12:12:21,42.805,6.029,CST-1368DR,6368,8926,15175,0.115,551
2020-05-05T12:15:23,42.805,6.029,CST-1368DR,6368,8926,15175,0.115,551
2020-05-05T12:18:25,42.805,6.029,CST-1368DR,6368,8927,15178,0.114,551
2020-05-05T12:21:26,42.805,6.029,CST-1368DR,6368,8927,15177,0.114,551
2020-05-05T12:24:28,42.805,6.029,CST-1368DR,6368,8927,15177,0.114,551
2020-05-05T12:27:30,42.805,6.029,CST-1368DR,6368,8927,15177,0.114,551
2020-05-05T12:30:31,42.805,6.029,CST-1368DR,6368,8926,15176,0.114,551
2020-05-05T12:33:33,42.805,6.029,CST-1368DR,6368,8927,15177,0.114,551
2020-05-05T12:36:35,42.805,6.029,CST-1368DR,6368,8927,15177,0.114,551
2020-05-05T12:39:36,42.805,6.029,CST-1368DR,6368,8926,15175,0.115,551
2020-05-05T12:42:38,42.805,6.029,CST-1368DR,6368,8926,15176,0.114,551
2020-05-05T12:45:40,42.805,6.029,CST-1368DR,6368,8925,15173,0.115,551
2020-05-05T12:48:42,42.805,6.029,CST-1368DR,6368,8926,15175,0.115,551
2020-05-05T12:51:43,42.805,6.029,CST-1368DR,6368,8927,15177,0.114,551
2020-05-05T12:54:45,42.805,6.029,CST-1368DR,6368,8927,15177,0.114,551
2020-05-05T12:57:47,42.805,6.029,CST-1368DR,6368,8926,15175,0.115,551
2020-05-05T13:00:48,42.805,6.029,CST-1368DR,6368,8927,15177,0.114,551
2020-05-05T13:03:50,42.805,6.029,CST-1368DR,6368,8926,15176,0.114,551
2020-05-05T13:06:52,42.805,6.029,CST-1368DR,6368,8927,15177,0.114,551
2020-05-05T13:09:53,42.805,6.029,CST-1368DR,6368,8927,15177,0.114,551
2020-05-05T13:12:55,42.805,6.029,CST-1368DR,6368,8927,15177,0.114,551
2020-05-05T13:15:57,42.805,6.029,CST-1368DR,6368,8927,15177,0.114,550
2020-05-05T13:18:59,42.805,6.029,CST-1368DR,6368,8927,15178,0.114,551
2020-05-05T13:22:00,42.805,6.029,CST-1368DR,6368,8926,15175,0.115,551
2020-05-05T13:25:02,42.805,6.029,CST-1368DR,6368,8927,15177,0.114,551
2020-05-05T13:28:04,42.805,6.029,CST-1368DR,6368,8926,15175,0.115,551
2020-05-05T13:31:05,42.805,6.029,CST-1368DR,6368,8927,15177,0.114,551
2020-05-05T13:34:07,42.805,6.029,CST-1368DR,6368,8927,15177,0.114,551
2020-05-05T13:37:09,42.805,6.029,CST-1368DR,6368,8924,15173,0.115,551
2020-05-05T13:40:10,42.805,6.029,CST-1368DR,6368,8925,15174,0.115,551
2020-05-05T13:43:12,42.805,6.029,CST-1368DR,6368,8927,15177,0.114,551
2020-05-05T13:46:14,42.805,6.029,CST-1368DR,6368,8927,15178,0.114,551
2020-05-05T13:49:16,42.805,6.029,CST-1368DR,6368,8926,15175,0.115,551
2020-05-05T13:52:17,42.805,6.029,CST-1368DR,6368,8927,15177,0.114,551
2020-05-05T13:55:19,42.805,6.029,CST-1368DR,6368,8927,15178,0.114,551
2020-05-05T13:58:21,42.805,6.029,CST-1368DR,6368,8926,15175,0.115,551
2020-05-05T14:01:22,42.805,6.029,CST-1368DR,6368,8927,15177,0.114,551
2020-05-05T14:04:24,42.805,6.029,CST-1368DR,6368,8925,15174,0.115,551
2020-05-05T14:07:26,42.805,6.029,CST-1368DR,6368,8927,15177,0.114,551
2020-05-05T14:10:27,42.805,6.029,CST-1368DR,6368,8927,15177,0.114,551
2020-05-05T14:13:29,42.805,6.029,CST-1368DR,6368,8927,15177,0.114,551
2020-05-05T14:16:31,42.805,6.029,CST-1368DR,6368,8926,15175,0.115,551
2020-05-05T14:19:32,42.805,6.029,CST-1368DR,6368,8926,15176,0.114,551
2020-05-05T14:22:34,42.805,6.029,CST-1368DR,6368,8926,15176,0.114,551
2020-05-05T14:25:36,42.805,6.029,CST-1368DR,6368,8925,15174,0.115,551
2020-05-05T14:28:38,42.805,6.029,CST-1368DR,6368,8927,15177,0.114,551
2020-05-05T14:31:39,42.805,6.029,CST-1368DR,6368,8925,15174,0.115,551
2020-05-05T14:34:41,42.805,6.029,CST-1368DR,6368,8926,15176,0.114,551
2020-05-05T14:37:43,42.805,6.029,CST-1368DR,6368,8927,15177,0.114,551
2020-05-05T14:40:44,42.805,6.029,CST-1368DR,6368,8925,15174,0.115,551
2020-05-05T14:43:46,42.805,6.029,CST-1368DR,6368,8927,15177,0.114,551
2020-05-05T14:46:48,42.805,6.029,CST-1368DR,6368,8927,15177,0.114,551
2020-05-05T14:49:49,42.805,6.029,CST-1368DR,6368,8927,15178,0.114,551
2020-05-05T14:52:51,42.805,6.029,CST-1368DR,6368,8927,15177,0.114,551
2020-05-05T14:55:53,42.805,6.029,CST-1368DR,6368,8927,15177,0.114,551
2020-05-05T14:58:54,42.805,6.029,CST-1368DR,6368,8927,15177,0.114,551
2020-05-05T15:01:56,42.805,6.029,CST-1368DR,6368,8927,15178,0.114,551
2020-05-05T15:04:58,42.805,6.029,CST-1368DR,6368,8927,15177,0.114,551
2020-05-05T15:07:59,42.805,6.029,CST-1368DR,6368,8925,15174,0.115,551
2020-05-05T15:11:01,42.805,6.029,CST-1368DR,6368,8926,15175,0.115,551
2020-05-05T15:14:03,42.805,6.029,CST-1368DR,6368,8926,15175,0.115,551
2020-05-05T15:17:04,42.805,6.029,CST-1368DR,6368,8926,15175,0.115,551
2020-05-05T15:20:06,42.805,6.029,CST-1368DR,6368,8927,15177,0.114,551
2020-05-05T15:23:08,42.805,6.029,CST-1368DR,6368,8926,15175,0.115,550
2020-05-05T15:26:10,42.805,6.029,CST-1368DR,6367,8923,15173,0.115,551
2020-05-05T15:29:11,42.805,6.029,CST-1368DR,6368,8925,15174,0.115,551
2020-05-05T15:32:13,42.805,6.029,CST-1368DR,6368,8926,15175,0.115,551
2020-05-05T15:35:15,42.805,6.029,CST-1368DR,6368,8925,15174,0.115,551
2020-05-05T15:38:16,42.805,6.029,CST-1368DR,6368,8927,15177,0.114,551
2020-05-05T15:41:18,42.805,6.029,CST-1368DR,6368,8926,15176,0.114,551
2020-05-05T15:44:20,42.805,6.029,CST-1368DR,6367,8925,15176,0.114,551
2020-05-05T15:47:21,42.805,6.029,CST-1368DR,6368,8925,15174,0.115,551
2020-05-05T15:50:23,42.805,6.029,CST-1368DR,6367,8926,15177,0.114,551
2020-05-05T15:53:25,42.805,6.029,CST-1368DR,6367,8926,15178,0.114,551
2020-05-05T15:56:26,42.805,6.029,CST-1368DR,6367,8925,15177,0.114,551
2020-05-05T15:59:28,42.805,6.029,CST-1368DR,6367,8926,15177,0.114,551
2020-05-05T16:02:30,42.805,6.029,CST-1368DR,6367,8925,15176,0.114,551
2020-05-05T16:05:31,42.805,6.029,CST-1368DR,6367,8926,15177,0.114,550
2020-05-05T16:08:33,42.805,6.029,CST-1368DR,6367,8924,15174,0.115,551
2020-05-05T16:11:35,42.805,6.029,CST-1368DR,6367,8926,15178,0.114,551
2020-05-05T16:14:36,42.805,6.029,CST-1368DR,6367,8926,15177,0.114,551
2020-05-05T16:17:38,42.805,6.029,CST-1368DR,6367,8925,15176,0.114,550
2020-05-05T16:20:40,42.805,6.029,CST-1368DR,6368,8926,15175,0.115,551
2020-05-05T16:23:42,42.805,6.029,CST-1368DR,6367,8926,15178,0.114,551
2020-05-05T16:26:43,42.805,6.029,CST-1368DR,6367,8925,15177,0.114,551
2020-05-05T16:29:45,42.805,6.029,CST-1368DR,6367,8926,15178,0.114,551
2020-05-05T16:32:47,42.805,6.029,CST-1368DR,6367,8927,15179,0.114,551
2020-05-05T16:35:49,42.805,6.029,CST-1368DR,6367,8927,15179,0.114,551
2020-05-05T16:38:50,42.805,6.029,CST-1368DR,6367,8926,15178,0.114,551
2020-05-05T16:41:52,42.805,6.029,CST-1368DR,6367,8925,15175,0.115,551
2020-05-05T16:44:54,42.805,6.029,CST-1368DR,6367,8926,15177,0.114,551
2020-05-05T16:47:55,42.805,6.029,CST-1368DR,6367,8925,15177,0.114,551
2020-05-05T16:50:57,42.805,6.029,CST-1368DR,6367,8924,15175,0.115,551
2020-05-05T16:53:59,42.805,6.029,CST-1368DR,6367,8925,15177,0.114,551